{"data":{"norad_id":49055,"intl_designator":"2021-069A","name":"STAR ONE D2","alt_names":[],"object_type":"PAYLOAD","status":"ACTIVE","operator":null,"country":"BRAZ","launch_date":"2021-07-30","launch_site_code":"FRGUI","launch_vehicle":null,"mission":null,"orbit_class":"UNKNOWN","rcs_meters":null,"size_class":null,"mass_kg":null,"dimensions":null,"purposes":["comms"],"wikipedia_slug":null,"has_3d_model":false,"image_url":null,"decayed_at":null,"tle_current":{"epoch":"2026-09-18T02:20:04.903872Z","epoch_age_seconds":229614,"freshness":"STALE","line1":"1 49055U 21069A   26261.09727898 -.00000269  00000+0  00000+0 0  9994","line2":"2 49055   0.0169 141.2784 0002613  37.2015 143.5777  1.00270864 18885","mean_motion":1.00270864,"eccentricity":0.0002613,"inclination_deg":0.0169,"raan_deg":141.2784,"arg_perigee_deg":37.2015,"mean_anomaly_deg":143.5777,"bstar":0,"rev_number":1888,"period_min":1436.1100947529,"perigee_km":35775.835440973,"apogee_km":35797.870864827,"semimajor_km":42164.9901529,"source":"CELESTRAK","updated_at":"2026-09-20T09:00:35.298655Z"}}}